Tracking 19794 objects as of 22-Jul-2019
HD Live streaming from Space Station
objects crossing your sky now

FENGYUN 1C DEB

Track FENGYUN 1C DEB now!
10-day predictions


NORAD ID: 32173
Int'l Code: 1999-025CTT
Perigee: 771.6 km
Apogee: 874.0 km
Inclination: 99.6 °
Period: 101.2 minutes
Semi major axis: 7193 km
RCS: 0.009 m2 (small)
Launch date: May 10, 1999
Source: People's Republic of China (PRC)
Launch site: Taiyaun Space Center, China (TSC)

Note: This is SATELLITE DEBRIS
aabbcc
Your satellite tracking list
Your tracking list is empty




NASA's NSSDC Master Catalog

Two Line Element Set (TLE):
1 32173U 99025CTT 19201.96586338  .00000842  00000-0  38788-3 0  9993
2 32173  99.6047 240.5608 0071140 309.5680  49.9225 14.22866268621085
Source of the keplerian elements: AFSPC